Location: Censerey
(47.2029°N, 4.3537°E)
Time: 14:15:33
(UTC+00:00)

Daily predictions for brighter satellites

Satellite Brightness Start Highest point End
(mag) Time Altitude Azimuth Time Altitude Azimuth Time Altitude Azimuth
NOSS 3-4 (A) 4.0 19:40:32 10° NW 19:47:31 89° NE 19:55:20 10° SE
NOSS 3-4 (C) 4.0 19:40:39 10° NW 19:47:38 88° NE 19:55:27 10° SE
SPOT 3 Rocket 4.0 19:43:10 10° SE 19:48:03 47° ENE 19:52:59 10° N
SJ 16-02 1.4 19:44:57 10° S 19:49:19 64° ESE 19:53:43 10° NNE
Cosmos 1933 Rocket 3.9 19:46:02 10° N 19:50:16 50° ENE 19:54:30 10° SSE
Cosmos 1151 Rocket 3.5 19:48:26 10° SSW 19:52:48 67° WNW 19:57:11 10° N
Tianhe-1 2.3 19:50:22 10° SW 19:52:59 25° S 19:55:38 10° ESE
Cosmos 1777 Rocket 4.4 19:48:43 10° SSW 19:53:53 72° WNW 19:59:08 10° NNE
SJ-6B 3.9 19:52:38 10° S 19:56:28 46° W 20:00:24 10° NNW
Ariane Rocket 3.1 19:52:27 10° SSE 19:57:31 80° WSW 20:02:37 10° NNW
USA 308 4.3 19:55:40 10° WNW 19:59:26 30° SW 20:03:11 10° SSE
Cosmos 1943 Rocket 3.3 19:56:25 10° SSE 20:00:39 22° ESE 20:04:52 10° NE
ATLAS 2AS CENTAUR R/B 3.0 19:53:23 10° NW 20:00:50 69° NE 20:07:39 10° SE
Cosmos 2082 Rocket 2.2 19:56:00 10° NNW 20:01:40 85° ENE 20:07:18 10° SSE
Cosmos 158 Rocket 3.9 19:57:25 10° NNW 20:02:21 80° ENE 20:07:19 10° SSE
Terra 3.8 20:01:05 10° E 20:03:47 15° ENE 20:06:29 10° NNE
USA 215 4.2 19:58:44 10° NE 20:05:00 51° NNW 20:11:16 10° W
Meteor 1-11 Rocket 4.2 20:02:12 10° N 20:08:01 52° ENE 20:13:42 10° SSE
Cosmos 1340 Rocket 4.3 20:06:12 10° NNE 20:09:31 23° ENE 20:12:35 11° ESE
Resurs 1-3 4.1 20:06:45 10° S 20:11:06 62° W 20:15:28 10° NNW
Cosmos 1898 Rocket 4.1 20:08:46 10° SSE 20:13:35 37° ESE 20:18:27 10° NE
CZ-2C R/B 4.1 20:12:37 10° NNE 20:16:59 44° E 20:21:24 10° S
Cosmos 923 Rocket 4.0 20:14:51 10° NNW 20:20:10 81° ENE 20:25:16 11° SSE
USA 245 3.4 20:18:58 15° ESE 20:20:20 27° ENE 20:22:34 10° N
ARIANE 5 R/B 3.4 20:18:52 12° SE 20:22:23 36° ENE 20:26:23 10° N
Cosmos 1271 Rocket 2.7 20:18:47 10° S 20:22:47 80° E 20:26:48 10° NNE
Cosmos 2278 Rocket 3.2 20:21:02 10° SW 20:26:33 52° WNW 20:32:06 10° NNE
Cosmos 1461 3.7 20:22:35 10° S 20:26:53 36° ESE 20:31:09 10° NE
Cosmos 2369 Rocket 3.5 20:26:36 13° SE 20:29:42 20° E 20:33:44 10° NE
Cosmos 1666 3.1 20:27:30 10° NNW 20:31:11 59° W 20:34:51 10° S
Meteor 1-10 Rocket 4.2 20:26:18 10° S 20:31:54 87° ESE 20:37:41 10° NNE
Cosmos 1818 3.8 20:26:39 10° NNW 20:32:08 68° NE 20:36:36 15° SE
Landsat 7 3.9 20:28:24 10° SSE 20:33:09 81° WSW 20:37:57 10° NNW
SL-24 R/B - RUBIN 2 3.9 20:28:57 10° NW 20:34:26 83° SW 20:38:18 16° SSE
Cosmos 1536 3.0 20:33:09 10° N 20:37:09 58° ENE 20:40:06 17° SSE
ERBS 2.2 20:34:54 10° NW 20:38:13 84° NE 20:40:21 20° SE
CZ-2C R/B 3.2 20:42:06 10° SSW 20:43:05 12° S 20:43:05 12° S
SPOT 5 3.6 20:39:51 16° SE 20:43:44 46° ENE 20:48:50 10° N
Cosmos 2154 Rocket 4.0 20:38:56 10° N 20:45:17 76° E 20:50:44 14° SSE
Cosmos 1812 4.5 20:41:55 10° SW 20:45:26 33° WNW 20:48:58 10° N
Nadezhda 1 Rocket 4.0 20:39:41 10° S 20:45:54 69° E 20:52:03 10° NNE
Cosmos 2074 Rocket 4.3 20:41:29 10° NNW 20:47:47 72° W 20:54:02 10° S
Cosmos 2184 Rocket 4.2 20:45:09 10° NNW 20:51:19 70° W 20:57:25 10° S
ERS-1 Rocket 3.3 20:49:06 19° SE 20:52:35 54° ENE 20:57:30 10° N
ISS -3.1 20:53:21 10° W 20:56:40 57° NNW 21:00:01 10° ENE
Cosmos 2112 Rocket 4.2 20:53:07 10° NNW 20:58:29 76° WSW 21:02:28 18° SSE
Cosmos 1869 Rocket 3.7 20:56:22 10° NNW 21:00:42 70° W 21:04:04 16° S
Cosmos 967 Rocket 4.4 20:54:51 10° SSW 21:01:08 86° ESE 21:07:27 10° NE
Spot 2 Rocket 3.5 21:00:39 18° SSE 21:04:27 83° WSW 21:09:32 10° NNW
Cosmos 1937 Rocket 3.4 20:59:44 10° SSW 21:04:50 71° ESE 21:10:02 10° NNE
JB-3 4.1 21:01:36 10° NNE 21:05:27 72° E 21:08:00 20° S
Cosmos 44 4.2 21:01:28 10° NW 21:06:38 47° WSW 21:10:08 19° S
Cosmos 2228 Rocket 3.7 21:03:08 10° SSW 21:07:31 58° WNW 21:11:59 10° N
Lacrosse 5 3.9 21:09:47 12° E 21:09:47 12° E 21:10:34 10° E
Cosmos 1743 2.7 21:05:14 10° N 21:09:07 73° E 21:11:02 28° SSE
SPOT 1/Viking Rocket 4.1 21:05:52 14° S 21:10:17 56° W 21:15:24 10° NNW
RESURS DK-1 3.5 21:08:01 10° NNW 21:11:50 33° NE 21:13:58 21° ESE
Resurs 01 Rocket 3.5 21:09:26 10° SSW 21:13:08 25° W 21:16:49 10° NW
Cosmos 2084 Rocket 4.2 21:10:03 10° NW 21:14:07 43° WSW 21:16:25 23° S
Cosmos 1707 Rocket 3.5 21:14:44 21° S 21:17:40 80° E 21:22:07 10° NNE
Meteor 1-27 Rocket 4.2 21:12:19 10° SSW 21:18:09 66° WNW 21:24:06 10° N
CARTOSAT-1 3.8 21:15:34 22° S 21:18:16 66° W 21:22:34 10° NNW
Cosmos 489 Rocket 4.5 21:14:38 10° NNW 21:20:55 77° ENE 21:24:45 25° SSE
Cosmos 2366 rocket 4.4 21:16:01 10° N 21:22:02 49° ENE 21:25:29 25° SE
CZ-4B DEB 4.4 21:22:08 42° SE 21:22:55 58° ENE 21:26:05 10° N
Cosmos 1867 3.7 21:23:54 17° S 21:27:59 52° ESE 21:33:17 10° NE
SJ 16-02 4.3 21:25:23 10° W 21:28:21 17° NW 21:31:19 10° NNW
Tianhe-1 2.7 21:26:25 10° WSW 21:28:07 22° SW 21:28:07 22° SW
DNEPR-1 R/B 4.4 21:23:19 10° SW 21:29:12 67° NW 21:34:03 10° NNE
Cosmos 2181 Rocket 4.1 21:25:49 25° SSE 21:29:19 56° E 21:35:17 10° NNE
Meteor 2-4 Rocket 4.5 21:28:24 26° SE 21:30:32 35° E 21:35:30 10° NNE
Meteor 1-19 Rocket 4.2 21:28:38 27° SSE 21:31:29 59° E 21:36:49 10° NNE
Cosmos 2297 4.3 21:28:06 10° SW 21:33:42 58° WNW 21:39:19 10° NNE
Cosmos 44 Rocket 4.4 21:30:08 10° NNW 21:35:05 40° NE 21:38:15 19° ESE
BREEZE-M R/B 1.9 21:33:38 10° WNW 21:36:03 74° NNE 21:36:27 58° E
SL-27 R/B 3.8 21:34:29 10° N 21:37:22 26° ENE 21:38:02 24° E
BREEZE M DEB (TANK) 2.9 21:35:21 10° W 21:37:17 24° WSW 21:37:17 24° WSW
Cosmos 372 Rocket 3.8 21:36:42 20° SSW 21:40:13 81° ESE 21:45:21 10° NNE
Terra 1.8 21:38:38 31° S 21:40:54 81° WSW 21:45:41 10° NNW
Cosmos 1515 3.8 21:39:36 31° SSW 21:41:18 72° W 21:45:06 10° N
Cosmos 1733 Rocket 3.1 21:39:06 10° NNW 21:43:26 74° W 21:45:11 35° S
Cosmos 1943 Rocket 2.6 21:38:21 10° SW 21:43:55 63° WNW 21:49:28 10° NNE
Cosmos 2082 Rocket 4.4 21:41:43 10° WNW 21:44:59 16° W 21:48:13 10° SW
Cosmos 1340 Rocket 4.3 21:42:21 10° NNW 21:46:00 32° W 21:48:11 19° SW
Cosmos 1656 Rocket 3.8 21:46:52 32° S 21:49:09 53° ESE 21:54:33 10° NE
Okean 1 3.5 21:49:15 32° SSW 21:50:58 69° W 21:54:57 10° N
ATLAS 2AS CENTAUR R/B 4.0 21:45:06 10° NW 21:51:12 30° WSW 21:55:12 17° SSW
Cosmos 2341 Rocket 4.2 21:44:57 10° NNW 21:51:18 69° W 21:55:10 25° S
Cosmos 2218 Rocket 4.0 21:48:23 10° N 21:54:45 86° E 21:58:01 31° S
Cosmos 494 Rocket 4.3 21:53:45 10° NNW 21:58:51 55° ENE 22:00:49 34° ESE
ARIANE 5 R/B 4.3 21:56:25 15° SW 21:58:55 25° W 22:02:32 10° NW
SL-8 Rocket 4.1 21:57:05 10° NNW 22:03:24 71° W 22:06:45 29° S
H-2A R/B 3.8 21:59:58 10° N 22:04:07 62° WNW 22:05:59 30° SW
Cosmos 2298 Rocket 4.0 22:02:56 38° S 22:04:48 62° ESE 22:10:02 10° NNE
Cosmos 1908 Rocket 3.6 22:00:58 10° N 22:05:28 71° E 22:06:34 49° SSE
Cosmos 2369 Rocket 2.4 22:08:17 14° SW 22:13:08 69° WNW 22:18:48 10° NNE
ATLAS CENTAUR R/B 1.1 22:12:29 48° SW 22:13:25 80° NW 22:17:15 10° NE
NOSS 2-1 (D) 4.4 22:13:32 10° NW 22:18:14 61° NE 22:21:25 28° ESE
Cosmos 1238 Rocket 4.4 22:15:51 10° NNW 22:21:01 40° W 22:23:11 26° SW
Okean 1-7 2.9 22:21:21 59° SE 22:21:57 69° E 22:26:14 10° NNE
COSMOS 2487 4.0 22:21:53 10° N 22:24:47 25° ENE 22:24:59 25° ENE
Spot 4 4.0 22:24:53 45° SE 22:26:12 64° ENE 22:31:01 10° N
Cosmos 2344 4.4 22:17:47 10° NW 22:26:56 81° NE 22:35:50 23° SE
Cosmos 2242 Rocket 3.5 22:27:55 57° S 22:28:50 89° E 22:33:22 10° N
Okean 2 Rocket 4.5 22:26:53 10° NNE 22:30:36 26° ENE 22:31:30 24° E
Cosmos 2150 Rocket 4.0 22:28:56 38° SSW 22:31:05 87° WNW 22:36:23 10° NNE
Cosmos 1125 Rocket 3.4 22:31:07 46° S 22:32:43 79° ESE 22:37:56 10° NNE
Cosmos 1975 3.8 22:29:03 10° NNW 22:32:45 37° W 22:33:30 34° WSW
ISS -2.2 22:30:41 10° WNW 22:33:53 37° N 22:36:27 14° ENE
Cosmos 1703 Rocket 3.5 22:34:26 58° SSW 22:35:17 84° W 22:39:46 10° N
Cosmos 1782 Rocket 3.4 22:33:49 10° N 22:38:17 86° E 22:38:55 65° SSE
Cosmos 1378 3.3 22:38:54 59° ENE 22:38:54 59° ENE 22:42:20 10° NNE
Cosmos 724 4.3 22:46:12 34° SSW 22:49:04 83° SE 22:55:22 10° NE
RESURS DK-1 3.7 22:46:12 10° NW 22:49:46 28° WSW 22:49:50 28° WSW
Lacrosse 5 1.7 22:48:53 51° SSW 22:50:04 72° SE 22:55:10 10° NE
Cosmos 1934 Rocket 4.1 22:47:15 10° N 22:53:18 60° ENE 22:55:20 40° SE
Cosmos 1805 3.5 22:51:52 10° N 22:55:43 54° ENE 22:55:43 54° ENE
Cosmos 1066 Rocket 4.2 22:55:52 49° SSE 22:57:20 71° E 23:02:54 10° NNE
Cosmos 1356 Rocket 3.5 22:57:13 10° NNW 23:01:31 69° W 23:01:50 65° SW
Cosmos 2227 Rocket 3.9 22:58:27 10° N 23:03:16 28° NE 23:07:26 13° ESE
Cosmos 2297 Rocket 3.5 23:00:04 10° NNW 23:05:15 35° NE 23:08:40 19° ESE
Cosmos 1821 Rocket 4.2 22:59:18 10° NNW 23:05:39 66° W 23:07:52 41° SSW
Okean 3 3.4 23:06:38 68° WSW 23:06:59 74° W 23:11:13 10° N
Meteor 1-12 Rocket 4.4 23:04:54 10° NNW 23:10:39 63° W 23:12:13 45° SSW
SL-27 R/B 4.5 23:09:43 10° NW 23:11:32 19° W 23:11:32 19° W
NOSS 2-1 (E) 4.3 23:10:40 10° NW 23:15:44 67° SW 23:17:30 47° S
Cosmos 44 Rocket 4.0 23:11:48 10° NW 23:16:40 40° WSW 23:16:57 40° SW
Cosmos 1766 3.4 23:13:22 10° N 23:17:13 65° ENE 23:17:13 65° ENE
Meteor 1-15 Rocket 4.2 23:12:27 10° NNW 23:18:14 86° W 23:19:48 51° S
Okean 1 Rocket 4.3 23:14:48 10° N 23:18:42 30° ENE 23:19:30 28° E
Cosmos 1674 Rocket 4.3 23:19:33 39° E 23:19:46 39° E 23:23:56 10° NNE
Cosmos 2221 Rocket 3.5 23:23:40 72° SSE 23:24:03 79° E 23:28:37 10° NNE
COSMOS 2455 2.9 23:20:12 10° NNW 23:26:15 74° NE 23:28:40 38° SE
USA 215 4.1 23:23:17 10° E 23:29:32 50° NNE 23:35:47 10° NW
ALOS 2 2.8 23:29:20 54° WSW 23:29:33 54° W 23:33:53 10° NNW
Nimbus 7 Rocket 4.3 23:24:55 10° NNE 23:30:51 81° ESE 23:32:34 49° S
COBE Rocket 4.1 23:31:00 55° SSW 23:31:55 67° W 23:37:06 10° NNW
Cosmos 1535 Rocket 4.5 23:27:44 10° NNW 23:34:03 78° W 23:36:02 47° S
Cosmos 1300 Rocket 3.7 23:29:49 10° NNW 23:34:08 57° W 23:34:19 57° WSW
Cosmos 1269 Rocket 4.1 23:29:07 10° NNW 23:34:20 60° WSW 23:35:07 53° SW
USA 81 4.1 23:30:01 10° N 23:35:20 71° E 23:36:30 53° SE
Cosmos 1470 3.7 23:32:39 10° N 23:36:21 37° ENE 23:36:35 37° E
Cosmos 2251 Rocket 4.2 23:35:46 10° NNW 23:40:52 48° ENE 23:42:54 32° ESE
EO 1 Del DPAF 4.2 23:42:52 10° NNE 23:45:57 37° E 23:45:57 37° E
Cosmos 1842 3.3 23:46:42 68° ENE 23:46:42 68° ENE 23:50:21 10° NNE
Cosmos 1733 4.0 23:43:41 10° NNW 23:46:57 43° WNW 23:46:57 43° WNW
Meteor 1-23 Rocket 4.5 23:46:20 43° SW 23:48:10 64° WNW 23:53:58 10° N
Thor Agena Rocket 3.5 23:46:14 10° NNE 23:51:33 88° WNW 23:52:46 55° SSW
ATLAS CENTAUR R/B 4.0 23:50:47 10° WNW 23:52:58 15° NNW 23:55:11 10° N
